STARLINK-36689

Last updated on Mon Mar 23 2026 00:02:07 GMT+0000 (Coordinated Universal Time)

1 67878U 26034AE 26081.29138462 .00587483 00000+0 27637-2 0 9994 2 67878 53.1572 147.9555 0002746 192.5443 167.5511 15.81020544 5937
UTC large
Height (km)
Speed (km/s)
/
Latitude / Longitude
Inclination (degrees)
Orbital Period (minutes)
Azimuth
Elevation
Range (km)
Doppler Factor

Next 0 passes for location: London (51.5072 / 0.1276)

Sorry there are no passes over London.